When you browse on this site, cookies collect data to enhance your experience and personalize the content and advertising you see.
Visit our Privacy Policy to learn more. By continuing to use the site, you agree to this use of cookies and data.
  • In Slovakia
  • List of Countries
  • For 7 days
  • Water Temperature
  • Satellite Maps
  • Weather Map
  • Weather Widgets
  • user-avatar
    Login

    Hourly Weather La Rioja

    Today, 26 May, Sunday

    Time Temperature Precipitation Wind Pressure Humidity
    00:00 +15°C° 0 mm 2 mps 710 mmHg 53%
    01:00 +15°C° 0 mm 2 mps 710 mmHg 57%
    02:00 +13°C° 0 mm 3 mps 710 mmHg 60%
    03:00 +13°C° 0 mm 3 mps 710 mmHg 62%
    04:00 +13°C° 0 mm 3 mps 710 mmHg 63%
    05:00 +12°C° 0 mm 3 mps 710 mmHg 65%
    06:00 +13°C° 0 mm 3 mps 710 mmHg 63%
    07:00 +14°C° 0 mm 2 mps 711 mmHg 61%
    08:00 +14°C° 0 mm 2 mps 711 mmHg 59%
    09:00 +16°C° 0 mm 2 mps 711 mmHg 51%
    10:00 +19°C° 0 mm 3 mps 712 mmHg 44%
    11:00 +21°C° 0 mm 3 mps 712 mmHg 37%
    12:00 +21°C° 0 mm 3 mps 712 mmHg 35%
    13:00 +22°C° 0 mm 3 mps 712 mmHg 33%
    14:00 +22°C° 0 mm 3 mps 711 mmHg 30%
    15:00 +23°C° 0 mm 2 mps 711 mmHg 32%
    16:00 +21°C° 0 mm 2 mps 711 mmHg 34%
    17:00 +21°C° 0 mm 1 mps 711 mmHg 35%
    18:00 +19°C° 0 mm 1 mps 712 mmHg 41%
    19:00 +16°C° 0 mm 1 mps 712 mmHg 47%
    20:00 +13°C° 0 mm 0 mps 712 mmHg 52%
    21:00 +13°C° 0 mm 0 mps 713 mmHg 52%
    22:00 +13°C° 0 mm 0 mps 713 mmHg 53%
    23:00 +13°C° 0 mm 0 mps 713 mmHg 53%

    Tomorrow, 27 May, Monday

    Time Temperature Precipitation Wind Pressure Humidity
    00:00 +14°C° 0 mm 1 mps 713 mmHg 51%
    01:00 +14°C° 0 mm 1 mps 713 mmHg 49%
    02:00 +14°C° 0 mm 1 mps 713 mmHg 46%
    03:00 +14°C° 0 mm 1 mps 713 mmHg 46%
    04:00 +14°C° 0 mm 1 mps 713 mmHg 45%
    05:00 +13°C° 0 mm 1 mps 713 mmHg 44%
    06:00 +14°C° 0 mm 1 mps 713 mmHg 43%
    07:00 +14°C° 0 mm 1 mps 713 mmHg 42%
    08:00 +15°C° 0 mm 1 mps 714 mmHg 42%
    09:00 +16°C° 0 mm 1 mps 714 mmHg 39%
    10:00 +18°C° 0 mm 2 mps 714 mmHg 37%
    11:00 +19°C° 0 mm 2 mps 714 mmHg 34%
    12:00 +20°C° 0 mm 3 mps 713 mmHg 34%
    13:00 +20°C° 0 mm 3 mps 713 mmHg 34%
    14:00 +21°C° 0 mm 3 mps 712 mmHg 34%
    15:00 +21°C° 0 mm 2 mps 711 mmHg 36%
    16:00 +20°C° 0 mm 2 mps 711 mmHg 39%
    17:00 +20°C° 0 mm 2 mps 711 mmHg 42%
    18:00 +19°C° 0 mm 1 mps 711 mmHg 51%
    19:00 +16°C° 0 mm 1 mps 711 mmHg 59%
    20:00 +14°C° 0 mm 1 mps 712 mmHg 68%
    21:00 +14°C° 0 mm 1 mps 712 mmHg 70%
    22:00 +13°C° 0 mm 1 mps 712 mmHg 72%
    23:00 +13°C° 0 mm 1 mps 713 mmHg 73%

    Day after tomorrow, 28 May, Tuesday

    Time Temperature Precipitation Wind Pressure Humidity
    00:00 +13°C° 0 mm 1 mps 712 mmHg 73%
    01:00 +13°C° 0 mm 2 mps 712 mmHg 73%
    02:00 +13°C° 0 mm 2 mps 712 mmHg 73%
    03:00 +13°C° 0 mm 2 mps 712 mmHg 73%
    04:00 +12°C° 0 mm 2 mps 712 mmHg 74%
    05:00 +11°C° 0 mm 3 mps 712 mmHg 74%
    06:00 +11°C° 0 mm 3 mps 712 mmHg 72%
    07:00 +13°C° 0 mm 2 mps 712 mmHg 69%
    08:00 +13°C° 0 mm 2 mps 713 mmHg 67%
    09:00 +15°C° 0 mm 2 mps 713 mmHg 60%
    10:00 +17°C° 0 mm 2 mps 713 mmHg 54%
    11:00 +18°C° 0 mm 2 mps 713 mmHg 47%
    12:00 +19°C° 0 mm 2 mps 712 mmHg 46%
    13:00 +20°C° 0 mm 2 mps 712 mmHg 45%
    14:00 +21°C° 0 mm 2 mps 711 mmHg 43%
    15:00 +20°C° 0 mm 2 mps 711 mmHg 45%
    16:00 +20°C° 0 mm 2 mps 711 mmHg 47%
    17:00 +21°C° 0 mm 1 mps 711 mmHg 49%
    18:00 +18°C° 0 mm 2 mps 711 mmHg 56%
    19:00 +17°C° 0 mm 2 mps 711 mmHg 64%
    20:00 +15°C° 0 mm 2 mps 712 mmHg 71%
    21:00 +15°C° 0 mm 2 mps 712 mmHg 73%
    22:00 +15°C° 0 mm 2 mps 712 mmHg 76%
    23:00 +14°C° 0 mm 3 mps 713 mmHg 78%

    29 May, Wednesday

    Time Temperature Precipitation Wind Pressure Humidity
    00:00 +15°C° 0 mm 2 mps 713 mmHg 79%
    01:00 +14°C° 0 mm 2 mps 712 mmHg 80%
    02:00 +14°C° 0 mm 2 mps 712 mmHg 81%
    03:00 +14°C° 0 mm 2 mps 712 mmHg 81%
    04:00 +14°C° 0 mm 2 mps 712 mmHg 82%
    05:00 +14°C° 0 mm 2 mps 711 mmHg 82%
    06:00 +14°C° 0 mm 2 mps 712 mmHg 81%
    07:00 +14°C° 0 mm 2 mps 712 mmHg 79%
    08:00 +14°C° 0 mm 2 mps 712 mmHg 78%
    09:00 +15°C° 0 mm 2 mps 712 mmHg 75%
    10:00 +17°C° 0 mm 2 mps 712 mmHg 72%
    11:00 +18°C° 0 mm 2 mps 712 mmHg 70%
    12:00 +18°C° 0 mm 3 mps 711 mmHg 69%
    13:00 +18°C° 0 mm 3 mps 710 mmHg 68%
    14:00 +19°C° 0 mm 4 mps 710 mmHg 67%
    15:00 +18°C° 0 mm 4 mps 710 mmHg 72%
    16:00 +17°C° 0 mm 4 mps 710 mmHg 76%
    17:00 +15°C° 0 mm 4 mps 710 mmHg 80%
    18:00 +15°C° 0.1 mm 4 mps 711 mmHg 82%
    19:00 +14°C° 0.1 mm 3 mps 711 mmHg 84%
    20:00 +13°C° 0.1 mm 3 mps 712 mmHg 86%
    21:00 +13°C° 0 mm 3 mps 712 mmHg 85%
    22:00 +13°C° 0 mm 3 mps 713 mmHg 84%
    23:00 +12°C° 0 mm 3 mps 713 mmHg 82%

    30 May, Thursday

    Time Temperature Precipitation Wind Pressure Humidity
    00:00 +12°C° 0 mm 3 mps 713 mmHg 82%
    01:00 +12°C° 0 mm 3 mps 713 mmHg 81%
    02:00 +12°C° 0 mm 3 mps 713 mmHg 80%
    03:00 +12°C° 0 mm 3 mps 713 mmHg 79%
    04:00 +12°C° 0 mm 3 mps 713 mmHg 78%
    05:00 +11°C° 0 mm 3 mps 713 mmHg 78%
    06:00 +12°C° 0 mm 3 mps 713 mmHg 75%
    07:00 +12°C° 0 mm 3 mps 714 mmHg 73%
    08:00 +12°C° 0 mm 3 mps 714 mmHg 71%
    09:00 +13°C° 0 mm 3 mps 714 mmHg 68%
    10:00 +15°C° 0 mm 2 mps 714 mmHg 65%
    11:00 +16°C° 0 mm 2 mps 714 mmHg 62%
    12:00 +17°C° 0 mm 2 mps 713 mmHg 61%
    13:00 +17°C° 0 mm 2 mps 713 mmHg 60%
    14:00 +18°C° 0 mm 2 mps 712 mmHg 59%
    15:00 +18°C° 0 mm 2 mps 711 mmHg 60%
    16:00 +18°C° 0 mm 2 mps 711 mmHg 62%
    17:00 +19°C° 0 mm 1 mps 711 mmHg 64%
    18:00 +16°C° 0 mm 2 mps 711 mmHg 67%
    19:00 +15°C° 0 mm 2 mps 712 mmHg 70%
    20:00 +13°C° 0 mm 3 mps 712 mmHg 74%
    21:00 +12°C° 0 mm 3 mps 712 mmHg 74%
    22:00 +12°C° 0 mm 3 mps 712 mmHg 73%
    23:00 +13°C° 0 mm 2 mps 712 mmHg 73%

    31 May, Friday

    Time Temperature Precipitation Wind Pressure Humidity
    00:00 +12°C° 0 mm 2 mps 711 mmHg 73%
    01:00 +12°C° 0 mm 2 mps 711 mmHg 73%
    02:00 +12°C° 0 mm 2 mps 710 mmHg 72%
    03:00 +11°C° 0 mm 3 mps 710 mmHg 71%
    04:00 +10°C° 0 mm 3 mps 710 mmHg 69%
    05:00 +10°C° 0 mm 3 mps 709 mmHg 68%
    06:00 +10°C° 0 mm 3 mps 709 mmHg 66%
    07:00 +10°C° 0 mm 3 mps 710 mmHg 63%
    08:00 +10°C° 0 mm 3 mps 710 mmHg 61%
    09:00 +12°C° 0 mm 3 mps 710 mmHg 60%
    10:00 +14°C° 0 mm 2 mps 709 mmHg 58%
    11:00 +15°C° 0 mm 2 mps 709 mmHg 57%
    12:00 +17°C° 0 mm 2 mps 709 mmHg 55%
    13:00 +19°C° 0 mm 1 mps 708 mmHg 52%
    14:00 +20°C° 0 mm 1 mps 707 mmHg 50%
    15:00 +19°C° 0 mm 2 mps 707 mmHg 49%
    16:00 +19°C° 0 mm 2 mps 707 mmHg 48%
    17:00 +20°C° 0 mm 3 mps 707 mmHg 47%
    18:00 +18°C° 0 mm 3 mps 708 mmHg 57%
    19:00 +16°C° 0 mm 3 mps 709 mmHg 67%
    20:00 +13°C° 0 mm 4 mps 710 mmHg 77%
    21:00 +13°C° 0 mm 3 mps 710 mmHg 80%
    22:00 +12°C° 0 mm 3 mps 711 mmHg 83%
    23:00 +12°C° 0 mm 3 mps 711 mmHg 86%
    Show more